Location: Bacea
(45.9500°N, 22.6667°E)
Time: 09:55:18
(UTC+00:00)

USA 215 - Pass Details

Date: 16 October 2021
Orbit: 1099 x 1109 km, 123.0° (Epoch: 20 November)

Event Time Altitude Azimuth Distance (km) Brightness Sun altitude
Exits shadow 16:07:34 - 54° (NE) 3,749 5.5 -5.3°
Reaches altitude 10° 16:09:41 10° 49° (NE) 2,965 5.0 -5.7°
Maximum altitude 16:15:48 44° 341° (NNW) 1,482 4.1 -6.7°
Drops below altitude 10° 16:21:55 10° 271° (W) 2,965 7.2 -7.8°
Sets 16:24:31 0° 266° (W) 3,923 8.8 -8.2°
